Time,TemperatureF,DewpointF,PressureIn,WindDirection,WindDirectionDegrees,WindSpeedMPH,WindSpeedGustMPH,Humidity,HourlyPrecipIn,Conditions,Clouds,dailyrainin,SoftwareType,DateUTC
2013-08-26 00:02:00,67.7,63.0,30.18,SSW,205,0.0,-999.0,85,-99.99,,,0.00,weatherlink.com 1.10,2013-08-26 04:02:00,
2013-08-26 00:17:00,67.9,63.0,30.18,SSW,205,0.0,-999.0,85,-99.99,,,0.00,weatherlink.com 1.10,2013-08-26 04:17:00,
2013-08-26 00:32:00,67.4,63.0,30.17,SSW,205,0.0,-999.0,85,-99.99,,,0.00,weatherlink.com 1.10,2013-08-26 04:32:00,
2013-08-26 00:47:00,66.6,63.0,30.18,SSW,205,0.0,-999.0,87,-99.99,,,0.00,weatherlink.com 1.10,2013-08-26 04:47:00,
2013-08-26 01:02:00,66.4,63.0,30.17,SSW,205,0.0,-999.0,87,-99.99,,,0.00,weatherlink.com 1.10,2013-08-26 05:02:00,
2013-08-26 01:17:00,66.0,62.0,30.17,SSW,205,0.0,-999.0,88,-99.99,,,0.00,weatherlink.com 1.10,2013-08-26 05:17:00,
2013-08-26 01:32:00,65.8,63.0,30.17,SSW,205,0.0,-999.0,89,-99.99,,,0.00,weatherlink.com 1.10,2013-08-26 05:32:00,
2013-08-26 01:47:00,65.6,62.0,30.17,SSW,205,0.0,-999.0,87,-99.99,,,0.00,weatherlink.com 1.10,2013-08-26 05:47:00,
2013-08-26 02:02:00,65.5,62.0,30.17,SSW,205,0.0,-999.0,87,-99.99,,,0.00,weatherlink.com 1.10,2013-08-26 06:02:00,
2013-08-26 02:17:00,65.7,62.0,30.16,SSW,205,0.0,-999.0,86,-99.99,,,0.00,weatherlink.com 1.10,2013-08-26 06:17:00,
2013-08-26 02:32:00,65.7,62.0,30.16,SSW,205,0.0,-999.0,86,-99.99,,,0.00,weatherlink.com 1.10,2013-08-26 06:32:00,
2013-08-26 02:47:00,65.6,61.0,30.15,SSW,205,0.0,-999.0,85,-99.99,,,0.00,weatherlink.com 1.10,2013-08-26 06:47:00,
2013-08-26 03:02:00,65.0,61.0,30.15,SSW,205,0.0,-999.0,86,-99.99,,,0.00,weatherlink.com 1.10,2013-08-26 07:02:00,
2013-08-26 03:17:00,64.8,61.0,30.14,SSW,205,0.0,-999.0,86,-99.99,,,0.00,weatherlink.com 1.10,2013-08-26 07:17:00,
2013-08-26 03:32:00,64.5,60.0,30.14,SSW,205,0.0,-999.0,86,-99.99,,,0.00,weatherlink.com 1.10,2013-08-26 07:32:00,
2013-08-26 03:47:00,64.2,60.0,30.13,SSW,205,0.0,-999.0,87,-99.99,,,0.00,weatherlink.com 1.10,2013-08-26 07:47:00,
2013-08-26 04:02:00,63.6,60.0,30.13,SSW,205,0.0,-999.0,88,-99.99,,,0.00,weatherlink.com 1.10,2013-08-26 08:02:00,
2013-08-26 04:17:00,63.3,60.0,30.13,SSW,205,0.0,-999.0,89,-99.99,,,0.00,weatherlink.com 1.10,2013-08-26 08:17:00,
2013-08-26 04:32:00,63.3,60.0,30.13,SSW,205,0.0,-999.0,89,-99.99,,,0.00,weatherlink.com 1.10,2013-08-26 08:32:00,
2013-08-26 04:47:00,63.6,60.0,30.14,SSW,205,0.0,-999.0,89,-99.99,,,0.00,weatherlink.com 1.10,2013-08-26 08:47:00,
2013-08-26 05:02:00,64.0,60.0,30.14,SSW,205,0.0,-999.0,87,-99.99,,,0.00,weatherlink.com 1.10,2013-08-26 09:02:00,
2013-08-26 05:17:00,64.0,60.0,30.14,SSW,205,0.0,-999.0,87,-99.99,,,0.00,weatherlink.com 1.10,2013-08-26 09:17:00,
2013-08-26 05:32:00,64.1,61.0,30.14,SSW,205,0.0,-999.0,88,-99.99,,,0.00,weatherlink.com 1.10,2013-08-26 09:32:00,
2013-08-26 05:47:00,63.9,60.0,30.15,SSW,205,0.0,-999.0,88,-99.99,,,0.00,weatherlink.com 1.10,2013-08-26 09:47:00,
2013-08-26 06:02:00,63.8,61.0,30.14,SSW,205,0.0,-999.0,89,-99.99,,,0.00,weatherlink.com 1.10,2013-08-26 10:02:00,
2013-08-26 06:17:00,63.8,61.0,30.14,SSW,205,0.0,-999.0,90,-99.99,,,0.00,weatherlink.com 1.10,2013-08-26 10:17:00,
2013-08-26 06:32:00,63.4,61.0,30.14,SSW,205,0.0,-999.0,91,-99.99,,,0.00,weatherlink.com 1.10,2013-08-26 10:32:00,
2013-08-26 06:47:00,63.7,62.0,30.14,SSW,205,0.0,-999.0,93,-99.99,,,0.00,weatherlink.com 1.10,2013-08-26 10:47:00,
2013-08-26 07:02:00,64.4,63.0,30.14,SSW,205,0.0,-999.0,95,-99.99,,,0.00,weatherlink.com 1.10,2013-08-26 11:02:00,
2013-08-26 07:17:00,65.1,64.0,30.15,SSW,205,0.0,-999.0,96,-99.99,,,0.00,weatherlink.com 1.10,2013-08-26 11:17:00,
2013-08-26 07:32:00,65.9,65.0,30.15,SSW,205,0.0,-999.0,95,-99.99,,,0.00,weatherlink.com 1.10,2013-08-26 11:32:00,
2013-08-26 07:47:00,66.2,65.0,30.16,SSW,205,0.0,-999.0,96,-99.99,,,0.00,weatherlink.com 1.10,2013-08-26 11:47:00,
2013-08-26 08:02:00,67.1,66.0,30.15,SSW,205,0.0,-999.0,96,-99.99,,,0.00,weatherlink.com 1.10,2013-08-26 12:02:00,
2013-08-26 08:18:00,68.5,67.0,30.15,SSW,205,3.0,-999.0,96,-99.99,,,0.00,weatherlink.com 1.10,2013-08-26 12:18:00,
2013-08-26 08:33:00,70.5,69.0,30.16,SW,231,4.0,-999.0,96,-99.99,,,0.00,weatherlink.com 1.10,2013-08-26 12:33:00,
2013-08-26 08:48:00,72.6,71.0,30.16,SW,221,9.0,-999.0,93,-99.99,,,0.00,weatherlink.com 1.10,2013-08-26 12:48:00,
2013-08-26 09:03:00,73.8,71.0,30.16,SW,233,7.0,-999.0,91,-99.99,,,0.00,weatherlink.com 1.10,2013-08-26 13:03:00,
2013-08-26 09:18:00,74.8,71.0,30.15,SW,227,6.0,-999.0,89,-99.99,,,0.00,weatherlink.com 1.10,2013-08-26 13:18:00,
2013-08-26 09:33:00,75.8,72.0,30.16,WSW,257,5.0,-999.0,88,-99.99,,,0.00,weatherlink.com 1.10,2013-08-26 13:33:00,
2013-08-26 09:48:00,76.8,73.0,30.15,WSW,244,6.0,-999.0,87,-99.99,,,0.00,weatherlink.com 1.10,2013-08-26 13:48:00,
2013-08-26 10:03:00,77.8,73.0,30.15,SW,226,4.0,-999.0,86,-99.99,,,0.00,weatherlink.com 1.10,2013-08-26 14:03:00,
2013-08-26 10:18:00,78.9,74.0,30.15,SW,236,7.0,-999.0,84,-99.99,,,0.00,weatherlink.com 1.10,2013-08-26 14:18:00,
2013-08-26 10:33:00,79.9,74.0,30.14,WSW,250,6.0,-999.0,82,-99.99,,,0.00,weatherlink.com 1.10,2013-08-26 14:33:00,
2013-08-26 10:48:00,80.4,75.0,30.14,SW,231,10.0,-999.0,82,-99.99,,,0.00,weatherlink.com 1.10,2013-08-26 14:48:00,
2013-08-26 11:03:00,81.1,74.0,30.14,SW,235,8.0,-999.0,79,-99.99,,,0.00,weatherlink.com 1.10,2013-08-26 15:03:00,
2013-08-26 11:18:00,81.9,75.0,30.14,WSW,258,6.0,-999.0,79,-99.99,,,0.00,weatherlink.com 1.10,2013-08-26 15:18:00,
2013-08-26 11:33:00,82.3,74.0,30.14,SW,233,8.0,-999.0,77,-99.99,,,0.00,weatherlink.com 1.10,2013-08-26 15:33:00,
2013-08-26 11:48:00,82.9,75.0,30.14,SW,225,8.0,-999.0,76,-99.99,,,0.00,weatherlink.com 1.10,2013-08-26 15:48:00,
2013-08-26 12:03:00,84.1,74.0,30.14,WSW,244,8.0,-999.0,72,-99.99,,,0.00,weatherlink.com 1.10,2013-08-26 16:03:00,
2013-08-26 12:18:00,84.0,75.0,30.14,West,261,6.0,-999.0,73,-99.99,,,0.00,weatherlink.com 1.10,2013-08-26 16:18:00,
2013-08-26 12:33:00,84.8,74.0,30.13,WSW,239,8.0,-999.0,70,-99.99,,,0.00,weatherlink.com 1.10,2013-08-26 16:33:00,
2013-08-26 12:48:00,85.7,74.0,30.13,WSW,241,7.0,-999.0,69,-99.99,,,0.00,weatherlink.com 1.10,2013-08-26 16:48:00,
2013-08-26 13:03:00,85.8,74.0,30.13,SW,235,6.0,-999.0,67,-99.99,,,0.00,weatherlink.com 1.10,2013-08-26 17:03:00,
2013-08-26 13:18:00,86.2,73.0,30.12,SW,226,8.0,-999.0,65,-99.99,,,0.00,weatherlink.com 1.10,2013-08-26 17:18:00,
2013-08-26 13:33:00,87.4,73.0,30.12,WSW,244,5.0,-999.0,63,-99.99,,,0.00,weatherlink.com 1.10,2013-08-26 17:33:00,
2013-08-26 13:49:00,87.3,73.0,30.11,WSW,238,7.0,-999.0,63,-99.99,,,0.00,weatherlink.com 1.10,2013-08-26 17:49:00,
2013-08-26 14:04:00,87.4,72.0,30.11,WSW,246,5.0,-999.0,61,-99.99,,,0.00,weatherlink.com 1.10,2013-08-26 18:04:00,
2013-08-26 14:34:00,88.0,72.0,30.09,SW,222,7.0,-999.0,60,-99.99,,,0.00,weatherlink.com 1.10,2013-08-26 18:34:00,
2013-08-26 14:49:00,87.9,72.0,30.09,WSW,249,8.0,-999.0,59,-99.99,,,0.00,weatherlink.com 1.10,2013-08-26 18:49:00,
2013-08-26 15:04:00,87.4,72.0,30.09,SSW,205,7.0,-999.0,60,-99.99,,,0.00,weatherlink.com 1.10,2013-08-26 19:04:00,
2013-08-26 15:19:00,88.1,72.0,30.08,WSW,242,9.0,-999.0,59,-99.99,,,0.00,weatherlink.com 1.10,2013-08-26 19:19:00,
2013-08-26 15:34:00,88.4,70.0,30.07,SW,234,9.0,-999.0,55,-99.99,,,0.00,weatherlink.com 1.10,2013-08-26 19:34:00,
2013-08-26 15:49:00,88.1,70.0,30.07,West,261,6.0,-999.0,56,-99.99,,,0.00,weatherlink.com 1.10,2013-08-26 19:49:00,
2013-08-26 16:04:00,88.5,71.0,30.06,SSW,211,8.0,-999.0,56,-99.99,,,0.00,weatherlink.com 1.10,2013-08-26 20:04:00,
2013-08-26 16:19:00,89.0,69.0,30.05,SW,219,8.0,-999.0,51,-99.99,,,0.00,weatherlink.com 1.10,2013-08-26 20:19:00,
2013-08-26 16:34:00,89.1,71.0,30.04,SW,227,9.0,-999.0,55,-99.99,,,0.00,weatherlink.com 1.10,2013-08-26 20:34:00,
2013-08-26 16:49:00,89.7,71.0,30.04,SW,234,8.0,-999.0,55,-99.99,,,0.00,weatherlink.com 1.10,2013-08-26 20:49:00,
2013-08-26 17:04:00,90.0,71.0,30.04,WSW,240,11.0,-999.0,54,-99.99,,,0.00,weatherlink.com 1.10,2013-08-26 21:04:00,
2013-08-26 17:19:00,89.3,71.0,30.03,SW,232,10.0,-999.0,55,-99.99,,,0.00,weatherlink.com 1.10,2013-08-26 21:19:00,
2013-08-26 17:34:00,89.2,71.0,30.03,WSW,240,7.0,-999.0,55,-99.99,,,0.00,weatherlink.com 1.10,2013-08-26 21:34:00,
2013-08-26 17:49:00,90.0,71.0,30.02,SW,219,13.0,-999.0,54,-99.99,,,0.00,weatherlink.com 1.10,2013-08-26 21:49:00,
2013-08-26 18:04:00,89.2,70.0,30.02,WSW,248,9.0,-999.0,53,-99.99,,,0.00,weatherlink.com 1.10,2013-08-26 22:04:00,
2013-08-26 18:19:00,88.4,71.0,30.02,SW,225,13.0,-999.0,56,-99.99,,,0.00,weatherlink.com 1.10,2013-08-26 22:19:00,
2013-08-26 18:34:00,87.3,72.0,30.02,WSW,238,6.0,-999.0,60,-99.99,,,0.00,weatherlink.com 1.10,2013-08-26 22:34:00,
2013-08-26 18:49:00,86.6,72.0,30.02,SW,231,8.0,-999.0,62,-99.99,,,0.00,weatherlink.com 1.10,2013-08-26 22:49:00,
2013-08-26 19:04:00,86.3,72.0,30.02,SW,222,6.0,-999.0,63,-99.99,,,0.00,weatherlink.com 1.10,2013-08-26 23:04:00,
2013-08-26 19:19:00,86.0,72.0,30.01,SW,219,7.0,-999.0,64,-99.99,,,0.00,weatherlink.com 1.10,2013-08-26 23:19:00,
2013-08-26 19:34:00,85.2,73.0,30.01,SW,217,4.0,-999.0,66,-99.99,,,0.00,weatherlink.com 1.10,2013-08-26 23:34:00,
2013-08-26 19:49:00,84.1,73.0,30.01,SW,219,3.0,-999.0,69,-99.99,,,0.00,weatherlink.com 1.10,2013-08-26 23:49:00,
2013-08-26 20:04:00,83.0,73.0,30.01,SW,219,1.0,-999.0,71,-99.99,,,0.00,weatherlink.com 1.10,2013-08-27 00:04:00,
2013-08-26 20:19:00,81.9,72.0,30.02,SW,219,1.0,-999.0,73,-99.99,,,0.00,weatherlink.com 1.10,2013-08-27 00:19:00,
2013-08-26 20:34:00,80.6,72.0,30.02,SW,219,2.0,-999.0,76,-99.99,,,0.00,weatherlink.com 1.10,2013-08-27 00:34:00,
2013-08-26 20:49:00,79.4,72.0,30.02,SW,219,0.0,-999.0,79,-99.99,,,0.00,weatherlink.com 1.10,2013-08-27 00:49:00,
2013-08-26 21:04:00,78.2,72.0,30.02,SW,219,0.0,-999.0,82,-99.99,,,0.00,weatherlink.com 1.10,2013-08-27 01:04:00,
2013-08-26 21:19:00,76.8,72.0,30.02,SW,219,0.0,-999.0,84,-99.99,,,0.00,weatherlink.com 1.10,2013-08-27 01:19:00,
2013-08-26 21:34:00,75.9,72.0,30.02,SW,219,0.0,-999.0,86,-99.99,,,0.00,weatherlink.com 1.10,2013-08-27 01:34:00,
2013-08-26 21:49:00,75.3,70.0,30.01,SW,219,1.0,-999.0,84,-99.99,,,0.00,weatherlink.com 1.10,2013-08-27 01:49:00,
2013-08-26 22:04:00,75.8,71.0,30.01,SW,219,1.0,-999.0,85,-99.99,,,0.00,weatherlink.com 1.10,2013-08-27 02:04:00,
2013-08-26 22:19:00,75.1,71.0,30.01,SW,219,0.0,-999.0,86,-99.99,,,0.00,weatherlink.com 1.10,2013-08-27 02:19:00,
2013-08-26 22:34:00,74.7,71.0,30.02,SW,219,0.0,-999.0,87,-99.99,,,0.00,weatherlink.com 1.10,2013-08-27 02:34:00,
2013-08-26 22:49:00,74.3,71.0,30.02,SW,219,0.0,-999.0,88,-99.99,,,0.00,weatherlink.com 1.10,2013-08-27 02:49:00,
2013-08-26 23:04:00,73.9,71.0,30.02,SW,219,0.0,-999.0,89,-99.99,,,0.00,weatherlink.com 1.10,2013-08-27 03:04:00,
2013-08-26 23:19:00,73.7,70.0,30.02,SW,219,0.0,-999.0,89,-99.99,,,0.00,weatherlink.com 1.10,2013-08-27 03:19:00,
2013-08-26 23:34:00,73.4,70.0,30.02,SW,219,0.0,-999.0,89,-99.99,,,0.00,weatherlink.com 1.10,2013-08-27 03:34:00,
2013-08-26 23:49:00,72.7,70.0,30.02,SW,219,0.0,-999.0,90,-99.99,,,0.00,weatherlink.com 1.10,2013-08-27 03:49:00,